Stations météo

Publicité
Romorantin, France (7247): Température de l'air & dewpoint: 18.01.2019 11:00:00 - 24.01.2019 11:00:00 (CET)Romorantin, France (7247): Température de l'air 5cm: 18.01.2019 11:00:00 - 24.01.2019 11:00:00 (CET)Romorantin, France (7247): Température de l'air -20cm & Température de l'air -100cm: 18.01.2019 11:00:00 - 24.01.2019 11:00:00 (CET)Romorantin, France (7247): Vitesse du vent & gusts: 18.01.2019 11:00:00 - 24.01.2019 11:00:00 (CET)Romorantin, France (7247): Direction du vent: 18.01.2019 11:00:00 - 24.01.2019 11:00:00 (CET)Romorantin, France (7247): reduced air pressure: 18.01.2019 11:00:00 - 24.01.2019 11:00:00 (CET)Romorantin, France (7247): visibility: 18.01.2019 11:00:00 - 24.01.2019 11:00:00 (CET)Romorantin, France (7247): Quantités de précipitations: 18.01.2019 11:00:00 - 24.01.2019 11:00:00 (CET)
Date & Time tt [°C] td [°C] tt 5cm [°C] tt -20cm [°C] tt -100cm [°C] ff [km/h] ff [knt] fx [km/h] fx [knt] dd ppp [hPa] vv [km] rr [mm]
24.01.2019 11:00:00 0,4 -2,2 1,3 4,5 8,3 5 3 8 5 N 1014,0 17 0,0
24.01.2019 10:00:00 0,4 -1,8 -0,6 4,5 8,3 4 2 11 6 N 1013,3 15 0,0
24.01.2019 09:00:00 -0,6 -2,3 -1,1 4,5 8,3 4 2 22 12 N 1012,8 13 0,0
24.01.2019 08:00:00 -0,7 -2,0 -1,3 4,6 8,3 6 3 18 10 N 1012,2 10 0,0
24.01.2019 07:00:00 -1,1 -1,7 -2,6 4,6 8,3 3 1 7 4 NNE 1011,5 9 0,0
24.01.2019 06:00:00 -1,0 -1,8 -2,4 4,7 8,3 5 3 10 5 NNW 1010,9 8 0,0
24.01.2019 05:00:00 -1,3 -1,4 -6,2 4,7 8,3 4 2 8 5 NW 1010,5 10 0,0
24.01.2019 04:00:00 -3,0 -4,1 -5,5 4,8 8,4 0 0 8 4 N 1010,3 8 0,0
24.01.2019 03:00:00 -1,0 -2,1 -3,0 4,8 8,3 3 2 11 6 WNW 1009,8 15 0,0
24.01.2019 02:00:00 0,1 -1,7 -1,2 4,8 8,3 6 3 17 9 NW 1008,9 14 0,0
24.01.2019 01:00:00 1,1 -0,8 0,5 4,8 8,4 8 4 18 10 NW 1008,3 13 0,0
24.01.2019 00:00:00 1,2 -0,6 0,5 4,8 8,4 8 4 22 12 NNW 1007,3 12 0,0
23.01.2019 23:00:00 1,1 -0,5 0,4 4,9 8,4 4 2 25 14 N 1006,4 11 0,0
23.01.2019 22:00:00 1,3 -0,3 0,8 4,9 8,4 9 5 22 12 NNW 1005,7 13 0,0
23.01.2019 21:00:00 1,2 -0,4 0,7 4,9 8,4 11 6 26 14 N 1004,9 19 0,0
23.01.2019 20:00:00 1,2 -0,1 0,6 4,9 8,4 12 6 26 14 NNW 1003,9 20 0,0
23.01.2019 19:00:00 1,1 -0,1 0,4 4,9 8,4 10 5 26 14 NNW 1003,0 20 0,0
23.01.2019 18:00:00 0,9 0,2 0,3 4,9 8,4 10 5 45 24 NNW 1001,9 6 0,8
23.01.2019 17:00:00 3,5 -1,1 2,6 4,9 8,4 19 10 43 23 NW 1000,3 20 0,0
23.01.2019 16:00:00 4,5 -1,3 3,9 4,8 8,4 21 11 42 23 NW 999,3 20 0,0
23.01.2019 15:00:00 4,6 -0,8 4,4 4,7 8,4 15 8 41 22 NW 999,2 20 0,0
23.01.2019 14:00:00 5,4 0,0 4,5 4,7 8,4 16 9 37 20 NW 999,4 20 0,0
23.01.2019 13:00:00 4,3 0,1 4,9 4,7 8,4 16 8 38 21 NW 999,1 20 0,0
23.01.2019 12:00:00 5,0 1,8 5,5 4,6 8,4 15 8 28 15 WNW 998,8 20 0,0
23.01.2019 11:00:00 3,8 2,0 2,5 4,6 8,4 10 6 21 11 WNW 998,5 20 0,0
23.01.2019 10:00:00 2,1 1,4 0,5 4,6 8,4 9 5 18 10 WNW 998,2 20 0,0
23.01.2019 09:00:00 1,2 0,8 -0,2 4,6 8,5 6 3 13 7 W 997,6 20 0,0
23.01.2019 08:00:00 1,7 1,4 0,2 4,6 8,5 4 2 10 5 WNW 997,1 20 0,0
23.01.2019 07:00:00 1,8 1,5 0,9 4,6 8,5 4 2 10 6 SW 996,7 20 0,0
23.01.2019 06:00:00 2,4 1,7 2,0 4,6 8,5 7 4 25 14 NW 996,8 20 0,4
23.01.2019 05:00:00 2,4 2,3 1,7 4,6 8,5 4 2 7 4 W 997,1 18 0,0
23.01.2019 04:00:00 2,5 2,2 2,0 4,5 8,5 3 1 6 3 SSW 997,8 20 0,0
23.01.2019 03:00:00 2,8 2,1 2,5 4,5 8,5 6 3 23 13 NNW 998,2 20 0,4
23.01.2019 02:00:00 3,8 3,5 3,2 4,5 8,5 8 4 22 12 WSW 998,5 15 0,0
23.01.2019 01:00:00 3,4 3,1 2,8 4,4 8,5 8 5 14 8 SW 999,6 7 0,2
23.01.2019 00:00:00 3,0 2,7 2,7 4,4 8,5 8 4 24 13 SSW 1000,5 16 0,2
22.01.2019 23:00:00 2,9 2,6 2,3 4,4 8,5 10 6 21 12 SSW 1001,4 5 0,4
22.01.2019 22:00:00 2,5 2,4 1,8 4,4 8,6 13 7 19 10 S 1002,3 9 0,0
22.01.2019 21:00:00 2,1 2,0 1,5 4,3 8,5 6 4 11 6 SSE 1003,6 8 0,0
22.01.2019 20:00:00 2,1 2,0 1,6 4,3 8,6 7 4 12 7 S 1004,6 9 0,0
22.01.2019 19:00:00 1,8 1,7 1,3 4,3 8,6 6 3 9 5 S 1005,3 9 0,0
22.01.2019 18:00:00 1,7 1,6 1,3 4,3 8,6 4 2 18 10 SW 1005,8 9 0,0
22.01.2019 17:00:00 1,6 1,5 1,8 4,2 8,6 5 3 12 6 SW 1005,8 8 0,0
22.01.2019 16:00:00 1,3 1,2 1,5 4,2 8,6 6 4 11 6 SW 1006,0 9 0,0
22.01.2019 15:00:00 1,1 1,0 0,1 4,3 8,6 5 3 21 12 WNW 1006,5 14 0,4
22.01.2019 14:00:00 0,5 0,2 0,1 4,3 8,6 3 2 10 5 WSW 1007,7 1,4 1,4
22.01.2019 13:00:00 1,4 1,0 0,6 4,3 8,6 2 1 21 11 W 1008,1 3,0 2,4
22.01.2019 12:00:00 2,0 1,3 1,1 4,3 8,6 16 8 28 15 S 1008,0 10 0,8
22.01.2019 11:00:00 1,4 0,5 0,5 4,4 8,6 11 6 21 11 S 1008,9 8 0,4
22.01.2019 10:00:00 0,9 -0,3 0,0 4,4 8,6 12 7 22 12 S 1010,1 13 0,0
22.01.2019 09:00:00 0,5 -0,5 -0,7 4,5 8,6 10 5 16 9 S 1011,1 10 0,0
22.01.2019 08:00:00 -0,4 -1,0 -1,8 4,5 8,6 6 3 14 7 S 1012,3 6 0,0
22.01.2019 07:00:00 -1,6 -1,9 -3,2 4,6 8,6 8 4 14 7 S 1013,3 4,5 0,0
22.01.2019 06:00:00 -2,7 -3,0 -7,4 4,7 8,6 6 3 10 6 S 1014,4 3,9 0,0
22.01.2019 05:00:00 -6,1 -6,8 -8,6 4,8 8,7 3 2 7 4 SSE 1015,7 3,1 0,0
22.01.2019 04:00:00 -6,6 -7,3 -9,5 4,8 8,6 2 1 4 2 SE 1017,0 4,2 0,0
22.01.2019 03:00:00 -5,8 -6,5 -9,8 4,9 8,6 0 0 5 3 N 1018,3 3,8 0,0
22.01.2019 02:00:00 -6,9 -7,6 -9,8 5,0 8,6 2 1 4 2 SE 1019,0 4,0 0,0
22.01.2019 01:00:00 -6,4 -6,7 -9,7 5,1 8,6 0 0 4 2 N 1020,5 3,6 0,0
22.01.2019 00:00:00 -6,0 -6,3 -9,7 5,2 8,6 0 0 3 2 N 1020,8 3,7 0,0
21.01.2019 23:00:00 -6,7 -8,2 -9,5 5,3 8,6 0 0 6 4 N 1021,3 3,4 0,0
21.01.2019 22:00:00 -5,2 -5,3 -8,8 5,4 8,7 4 2 7 4 ESE 1022,2 1,8 0,0
21.01.2019 21:00:00 -4,3 -4,7 -6,9 5,5 8,7 0 0 4 2 N 1022,7 2,3 0,0
21.01.2019 20:00:00 -3,7 -4,1 -6,9 5,5 8,6 0 0 7 4 N 1022,8 3,5 0,0
21.01.2019 19:00:00 -3,6 -3,9 -6,1 5,6 8,7 3 1 5 3 ESE 1022,9 2,8 0,0
21.01.2019 18:00:00 -2,5 -3,6 -4,5 5,6 8,7 0 0 6 4 N 1023,2 5 0,0
21.01.2019 17:00:00 -0,6 -3,1 -1,0 5,6 8,7 3 1 9 5 N 1023,0 8 0,0
21.01.2019 16:00:00 -0,3 -3,2 0,9 5,6 8,7 3 2 11 6 NE 1023,0 8 0,0
21.01.2019 15:00:00 -0,2 -2,6 0,7 5,6 8,6 5 3 13 7 NW 1023,4 7 0,0
21.01.2019 14:00:00 -0,5 -2,4 0,5 5,7 8,7 7 4 17 9 NNE 1023,9 6 0,0
21.01.2019 13:00:00 -0,2 -2,1 1,2 5,7 8,7 6 4 16 8 NNW 1024,3 6 0,0
21.01.2019 12:00:00 -0,2 -2,1 1,0 5,8 8,7 6 3 13 7 NE 1024,3 6 0,0
21.01.2019 11:00:00 -0,4 -2,0 0,7 5,8 8,7 7 4 14 8 NNE 1024,0 5 0,0
21.01.2019 10:00:00 -0,4 -1,4 -1,3 5,9 8,7 5 3 10 5 N 1023,8 3,9 0,0
21.01.2019 09:00:00 -1,0 -1,7 -1,7 5,9 8,7 3 2 11 6 N 1023,2 3,6 0,0
21.01.2019 08:00:00 0,0 -1,0 -0,5 5,9 8,7 7 4 13 7 NNW 1022,7 7 0,0
21.01.2019 07:00:00 1,4 -0,5 1,2 6,0 8,7 6 3 26 14 NNE 1022,4 20 0,0
21.01.2019 06:00:00 1,6 -0,2 1,3 6,0 8,7 9 5 20 11 N 1022,2 20 0,0
21.01.2019 05:00:00 2,0 1,1 1,9 6,0 8,7 6 3 20 11 N 1021,8 4,9 0,0
21.01.2019 04:00:00 2,3 1,6 2,1 6,1 8,7 8 4 19 11 N 1021,6 3,1 0,0
21.01.2019 03:00:00 2,7 2,1 2,4 6,0 8,7 5 3 16 9 N 1021,4 3,1 0,0
21.01.2019 02:00:00 2,7 1,8 2,4 6,1 8,7 8 5 20 11 N 1021,0 6 0,0
21.01.2019 01:00:00 2,9 2,3 2,7 6,1 8,7 7 4 18 10 NNE 1020,7 5 0,0
21.01.2019 00:00:00 2,9 2,0 2,7 6,1 8,7 7 4 16 9 NNE 1020,6 8 0,0
20.01.2019 23:00:00 3,2 2,5 2,9 6,1 8,7 8 4 22 12 NNE 1020,0 5 0,0
20.01.2019 22:00:00 3,6 2,6 3,4 6,1 8,7 10 5 21 11 NNW 1019,3 9 0,0
20.01.2019 21:00:00 3,8 3,2 3,7 6,1 8,7 6 4 16 9 N 1018,8 4,4 0,0
20.01.2019 20:00:00 3,9 3,2 3,8 6,0 8,7 7 4 19 10 N 1017,9 6 0,0
20.01.2019 19:00:00 4,1 3,4 4,0 6,0 8,7 9 5 21 11 N 1017,0 10 0,0
20.01.2019 18:00:00 4,2 3,5 4,0 6,0 8,7 8 4 20 11 N 1016,2 16 0,0
20.01.2019 17:00:00 4,5 4,1 4,5 6,0 8,7 11 6 19 11 N 1015,5 4,7 0,0
20.01.2019 16:00:00 5,1 4,4 5,1 5,9 8,7 12 7 22 12 NNW 1014,7 9 0,0
20.01.2019 15:00:00 6,0 5,3 6,0 5,8 8,7 9 5 16 9 NNW 1014,0 17 0,0
20.01.2019 14:00:00 6,6 5,5 6,9 5,8 8,7 8 4 16 9 NNE 1013,7 20 0,0
20.01.2019 13:00:00 6,2 5,8 6,4 5,7 8,7 5 3 13 7 N 1013,6 15 0,0
20.01.2019 12:00:00 6,1 5,7 6,6 5,7 8,7 2 1 5 3 NNW 1013,4 20 0,0
20.01.2019 11:00:00 5,7 5,7 5,3 5,7 8,7 0 0 2 1 N 1012,8 4,9 0,0
20.01.2019 10:00:00 5,0 5,0 4,6 5,6 8,7 2 1 5 3 WSW 1012,0 1,8 0,2
20.01.2019 09:00:00 4,5 4,5 3,9 5,6 8,7 2 1 4 2 N 1011,5 2,3 0,4
20.01.2019 08:00:00 4,4 4,4 3,9 5,6 8,7 0 0 3 2 N 1010,7 3,4 0,8
20.01.2019 07:00:00 4,3 4,3 3,3 5,6 8,8 0 0 3 2 N 1010,2 3,1 0,0
20.01.2019 06:00:00 4,5 4,4 3,4 5,6 8,8 0 0 3 1 N 1009,8 0,7 0,0
20.01.2019 05:00:00 4,8 4,8 4,5 5,5 8,8 2 1 4 2 S 1009,7 6 0,0
20.01.2019 04:00:00 4,5 4,5 4,4 5,5 8,8 0 0 3 2 N 1009,7 3,9 0,0
20.01.2019 03:00:00 4,4 4,4 3,1 5,5 8,8 2 1 4 2 SSE 1009,7 6 0,0
20.01.2019 02:00:00 4,1 4,0 2,4 5,4 8,8 0 0 4 2 N 1009,4 3,2 0,0
20.01.2019 01:00:00 4,1 3,5 2,2 5,4 8,8 4 2 7 4 SSE 1009,5 6 0,0
20.01.2019 00:00:00 5,1 4,8 4,5 5,4 8,8 4 2 11 6 S 1009,5 15 0,0
19.01.2019 23:00:00 5,4 5,3 4,8 5,3 8,8 4 2 11 6 SSW 1009,4 13 1,6
19.01.2019 22:00:00 5,3 5,0 4,5 5,2 8,8 5 3 11 6 S 1009,4 4,8 2,2
19.01.2019 21:00:00 4,8 4,5 4,4 5,2 8,9 7 4 12 7 SE 1009,2 9 0,0
19.01.2019 20:00:00 4,9 4,6 4,6 5,1 8,9 10 5 12 7 SE 1009,2 10 0,0
19.01.2019 19:00:00 5,0 4,7 4,4 5,0 8,9 9 5 14 8 SSE 1009,3 11 0,0
19.01.2019 18:00:00 4,8 4,5 4,5 5,0 8,9 6 3 16 9 ESE 1009,0 9 0,0
19.01.2019 17:00:00 5,2 4,8 5,1 4,9 8,9 9 5 14 8 ESE 1009,0 9 0,0
19.01.2019 16:00:00 5,2 4,6 5,1 4,8 8,9 9 5 13 7 ESE 1009,3 13 0,0
19.01.2019 15:00:00 4,9 4,2 5,3 4,7 8,9 6 3 12 6 ESE 1009,8 19 0,0
19.01.2019 14:00:00 5,1 4,2 5,3 4,6 8,9 8 4 14 7 SE 1010,4 20 0,0
19.01.2019 13:00:00 3,5 3,1 2,4 4,7 8,9 10 5 15 8 SE 1011,3 13 0,0
19.01.2019 12:00:00 1,6 1,3 0,1 4,7 8,9 5 3 13 7 - 1012,3 9 0,0
19.01.2019 11:00:00 0,7 0,4 0,1 4,7 8,9 4 2 9 5 ESE 1012,5 7 0,0
19.01.2019 10:00:00 0,3 -0,1 0,1 4,7 8,9 6 3 13 7 ESE 1012,4 9 0,0
19.01.2019 09:00:00 0,2 -0,1 0,1 4,8 8,9 8 4 18 10 ESE 1012,3 7 0,6
19.01.2019 08:00:00 -0,3 -0,7 -0,9 4,8 8,9 6 3 21 12 SE 1012,5 4,5 0,8
19.01.2019 07:00:00 -1,1 -1,9 -2,3 4,9 8,9 10 5 16 9 ESE 1012,7 6 0,0
19.01.2019 06:00:00 -1,6 -2,7 -3,8 4,9 9,0 9 5 18 10 ESE 1013,2 19 0,0
19.01.2019 05:00:00 -2,8 -3,6 -5,2 5,0 8,9 6 4 14 8 ESE 1014,1 18 0,0
19.01.2019 04:00:00 -2,7 -3,5 -5,8 5,1 9,0 8 5 14 8 ESE 1014,7 16 0,0
19.01.2019 03:00:00 -2,5 -3,5 -6,9 5,2 9,0 4 2 10 6 E 1015,3 18 0,0
19.01.2019 02:00:00 -3,9 -4,3 -8,2 5,3 9,0 4 2 6 4 E 1015,6 13 0,0
19.01.2019 01:00:00 -2,7 -3,4 -6,2 5,4 9,0 0 0 11 6 N 1016,2 17 0,0
19.01.2019 00:00:00 -2,9 -3,7 -6,1 5,5 9,0 8 4 13 7 ESE 1016,5 19 0,0
18.01.2019 23:00:00 -2,3 -3,0 -6,6 5,6 9,0 9 5 15 8 ESE 1016,5 18 0,0
18.01.2019 22:00:00 -3,4 -3,8 -8,4 5,7 9,0 6 4 11 6 ESE 1016,8 18 0,0
18.01.2019 21:00:00 -4,1 -4,4 -8,1 5,8 9,0 2 1 6 3 E 1017,3 19 0,0
18.01.2019 20:00:00 -2,5 -3,5 -7,1 5,8 9,0 5 3 9 5 E 1017,4 20 0,0
18.01.2019 19:00:00 -3,2 -4,3 -6,2 5,8 9,0 0 0 5 3 N 1017,8 20 0,0
18.01.2019 18:00:00 -0,4 -2,9 -3,7 5,8 9,0 5 3 13 7 SE 1018,0 20 0,0
18.01.2019 17:00:00 3,4 -2,0 3,1 5,8 9,0 13 7 21 11 E 1017,9 20 0,0
18.01.2019 16:00:00 4,9 -1,8 8,3 5,7 9,0 13 7 22 12 SE 1018,3 20 0,0
18.01.2019 15:00:00 5,0 -1,3 8,5 5,6 9,0 11 6 22 12 ESE 1018,6 20 0,0
18.01.2019 14:00:00 4,7 -0,5 6,4 5,6 9,0 11 6 22 12 SE 1018,9 20 0,0
18.01.2019 13:00:00 3,5 0,0 3,5 5,6 9,0 8 5 16 8 ESE 1019,9 20 0,0
18.01.2019 12:00:00 2,3 0,4 2,7 5,7 9,0 5 3 8 5 ESE 1020,6 19 0,0
18.01.2019 11:00:00 0,1 -0,3 0,1 5,8 9,0 0 0 6 3 N 1021,0 19 0,0

tt = Température de l'air
td = dewpoint
tt 5cm = Température de l'air 5cm
tt -20cm = Température de l'air -20cm
tt -100cm = Température de l'air -100cm
ff = Vitesse du vent
fx = gusts
dd = Direction du vent
ppp = reduced air pressure
vv = visibility
rr = Quantités de précipitations

stations d'obs. à proximité